Weather History for Erie, CO

Change the Weather History Date:

Monday, November 11, 2013

  Actual Average (KBJC) Record (KBJC)
Temperature  
Mean Temperature 48 °F -  
Max Temperature 67 °F 50 °F 78 °F (1989)
Min Temperature 30 °F 30 °F 10 °F (2000)
Degree Days  
Heating Degree Days 16    
Moisture  
Dew Point 28 °F    
Average Humidity 69    
Maximum Humidity 94    
Minimum Humidity 16    
Precipitation  
Precipitation 0.00 in - - ()
Sea Level Pressure  
Sea Level Pressure 30.37 in    
Wind  
Wind Speed 4 mph (ESE)    
Max Wind Speed 18 mph    
Max Gust Speed 28 mph    
Visibility 10 miles    
Events      
Averages and records for this station are not official NWS values.
T = Trace of Precipitation, MM = Missing Value Source: NWS Daily Summary

Daily Weather History Graph

Daily Weather History Graph

Search for Another Location

Airport:

Trip Planner

Search our weather history database for the weather conditions in past years. The results will help you decide how hot, cold, wet, or windy it might be!

Date:

Astronomy

Nov. 11, 2013 Rise Set
Actual Time 6:41 AM MST 4:46 PM MST
Civil Twilight 6:12 AM MST 5:15 PM MST
Nautical Twilight 5:39 AM MST 5:48 PM MST
Astronomical Twilight 5:07 AM MST 6:20 PM MST
Moon 1:29 PM MST (11/11) 12:29 AM MST (11/11)
Length of Visible Light 11h 03m
Length of Day
10h 05m
Waxing Gibbous, 67% of the Moon is Illuminated
Nov 11
Waxing Gibbous
Nov 17
Full
Nov 25
Last Quarter
Dec 2
New
Dec 9
First Quarter

Hourly Weather History & Observations

Time (MST) Temp. Windchill Dew Point Humidity Pressure Visibility Wind Dir Wind Speed Gust Speed Precip Events Conditions
12:14 AM 32.0 °F - 26.6 °F 80% 30.22 in 10.0 mi Calm Calm - N/A   Clear
12:34 AM 31.8 °F 27.3 °F 26.1 °F 79% 30.22 in 10.0 mi SSW 4.6 mph - N/A   Clear
12:54 AM 32.0 °F - 26.6 °F 80% 30.22 in 10.0 mi Calm Calm - N/A   Clear
1:14 AM 32.9 °F - 26.2 °F 76% 30.22 in 10.0 mi Calm Calm - N/A   Clear
1:34 AM 31.5 °F 24.9 °F 26.1 °F 80% 30.22 in 10.0 mi SSW 6.9 mph - N/A   Clear
1:54 AM 32.0 °F - 26.1 °F 79% 30.21 in 10.0 mi Calm Calm - N/A   Clear
2:14 AM 32.4 °F 29.1 °F 26.2 °F 78% 30.20 in 10.0 mi SSW 3.5 mph - N/A   Clear
2:34 AM 34.0 °F 27.2 °F 26.2 °F 73% 30.20 in 10.0 mi SSW 8.1 mph - N/A   Clear
2:54 AM 34.3 °F - 25.7 °F 71% 30.20 in 10.0 mi Calm Calm - N/A   Clear
3:14 AM 32.0 °F 28.7 °F 25.9 °F 78% 30.20 in 10.0 mi South 3.5 mph - N/A   Clear
3:34 AM 32.0 °F - 25.3 °F 76% 30.20 in 10.0 mi Calm Calm - N/A   Clear
3:54 AM 31.1 °F - 25.7 °F 80% 30.20 in 10.0 mi Calm Calm - N/A   Clear
4:14 AM 31.6 °F 28.3 °F 25.3 °F 78% 30.20 in 10.0 mi SW 3.5 mph - N/A   Clear
4:34 AM 30.9 °F 27.5 °F 25.3 °F 80% 30.20 in 10.0 mi SSW 3.5 mph - N/A   Clear
4:54 AM 31.5 °F 26.8 °F 25.7 °F 79% 30.21 in 10.0 mi SSW 4.6 mph - N/A   Clear
5:14 AM 31.3 °F 24.7 °F 25.9 °F 80% 30.21 in 10.0 mi SSW 6.9 mph - N/A   Clear
5:34 AM 33.8 °F 27.7 °F 25.5 °F 72% 30.21 in 10.0 mi SSW 6.9 mph - N/A   Clear
5:54 AM 35.2 °F - 25.5 °F 68% 30.22 in 10.0 mi Calm Calm - N/A   Clear
6:14 AM 34.5 °F - 25.0 °F 68% 30.22 in 10.0 mi Calm Calm - N/A   Clear
6:34 AM 32.2 °F - 24.6 °F 74% 30.22 in 10.0 mi Calm Calm - N/A   Clear
6:54 AM 32.7 °F - 25.3 °F 74% 30.23 in 10.0 mi Calm Calm - N/A   Clear
7:14 AM 32.0 °F - 25.5 °F 77% 30.23 in 10.0 mi Calm Calm - N/A   Clear
7:34 AM 34.9 °F 32.0 °F 28.4 °F 77% 30.25 in 10.0 mi North 3.5 mph - N/A   Clear
7:54 AM 41.2 °F - 29.7 °F 64% 30.25 in 10.0 mi Calm Calm - N/A   Clear
8:14 AM 47.7 °F - 31.3 °F 53% 30.26 in 10.0 mi Calm Calm - N/A   Clear
8:34 AM 50.5 °F - 26.6 °F 39% 30.26 in 10.0 mi Calm Calm - N/A   Clear
8:54 AM 54.0 °F - 24.4 °F 32% 30.26 in 10.0 mi Calm Calm - N/A   Clear
9:14 AM 57.7 °F - 29.1 °F 34% 30.26 in 10.0 mi Calm Calm - N/A   Clear
9:34 AM 62.4 °F - 23.0 °F 22% 30.26 in 10.0 mi SE 3.5 mph - N/A   Clear
9:54 AM 64.6 °F - 20.8 °F 19% 30.26 in 10.0 mi Calm Calm - N/A   Clear
10:14 AM 64.6 °F - 20.1 °F 18% 30.26 in 10.0 mi South 3.5 mph - N/A   Clear
10:34 AM 65.5 °F - 19.0 °F 17% 30.27 in 10.0 mi Calm Calm - N/A   Clear
10:54 AM 66.6 °F - 18.5 °F 16% 30.27 in 10.0 mi SSE 4.6 mph - N/A   Clear
11:14 AM 67.6 °F - 19.2 °F 16% 30.27 in 10.0 mi ENE 9.2 mph - N/A   Clear
11:34 AM 65.3 °F - 22.1 °F 19% 30.26 in 10.0 mi East 10.4 mph 17.3 mph N/A   Clear
11:54 AM 62.1 °F - 28.6 °F 28% 30.26 in 10.0 mi East 17.3 mph 23.0 mph N/A   Clear
12:14 PM 59.9 °F - 28.2 °F 30% 30.28 in 10.0 mi ENE 17.3 mph 26.5 mph N/A   Clear
12:34 PM 52.0 °F - 31.1 °F 45% 30.31 in 10.0 mi NE 18.4 mph 27.6 mph N/A   Clear
12:54 PM 48.2 °F - 30.7 °F 51% 30.34 in 10.0 mi NE 17.3 mph 20.7 mph N/A   Clear
1:14 PM 46.8 °F - 30.9 °F 54% 30.35 in 10.0 mi NE 12.7 mph 20.7 mph N/A   Clear
1:34 PM 45.7 °F 40.2 °F 31.1 °F 57% 30.36 in 10.0 mi ENE 11.5 mph 17.3 mph N/A   Clear
1:54 PM 44.4 °F 39.5 °F 31.1 °F 60% 30.36 in 10.0 mi ENE 9.2 mph 17.3 mph N/A   Clear
2:14 PM 43.5 °F 37.9 °F 31.1 °F 62% 30.38 in 10.0 mi NE 10.4 mph 17.3 mph N/A   Clear
2:34 PM 42.6 °F 36.8 °F 30.9 °F 63% 30.39 in 10.0 mi ENE 10.4 mph 16.1 mph N/A   Clear
2:54 PM 41.0 °F 35.8 °F 30.9 °F 67% 30.40 in 10.0 mi East 8.1 mph - N/A   Clear
3:14 PM 40.5 °F 35.1 °F 30.7 °F 68% 30.41 in 10.0 mi East 8.1 mph - N/A   Clear
3:34 PM 39.2 °F 34.2 °F 30.6 °F 71% 30.42 in 10.0 mi East 6.9 mph - N/A   Clear
3:54 PM 37.8 °F 32.5 °F 30.2 °F 74% 30.43 in 10.0 mi East 6.9 mph - N/A   Clear
4:14 PM 36.0 °F 30.3 °F 30.0 °F 79% 30.44 in 10.0 mi East 6.9 mph - N/A   Clear
4:34 PM 34.3 °F 27.0 °F 30.2 °F 85% 30.44 in 10.0 mi ESE 9.2 mph - N/A   Clear
4:54 PM 32.9 °F 27.5 °F 29.8 °F 88% 30.45 in 10.0 mi ESE 5.8 mph - N/A   Clear
5:14 PM 32.5 °F 26.2 °F 29.8 °F 90% 30.47 in 10.0 mi ESE 6.9 mph - N/A   Clear
5:34 PM 32.0 °F 27.5 °F 29.3 °F 90% 30.48 in 10.0 mi ESE 4.6 mph - N/A   Clear
5:54 PM 31.5 °F 28.1 °F 29.1 °F 91% 30.51 in 10.0 mi ESE 3.5 mph - N/A   Clear
6:14 PM 32.0 °F 27.5 °F 29.7 °F 91% 30.52 in 10.0 mi East 4.6 mph - N/A   Mostly Cloudy
6:34 PM 32.7 °F 28.3 °F 30.2 °F 90% 30.53 in 10.0 mi East 4.6 mph - N/A   Overcast
6:54 PM 32.9 °F 27.5 °F 29.7 °F 88% 30.54 in 10.0 mi East 5.8 mph - N/A   Overcast
7:14 PM 32.9 °F 27.5 °F 29.8 °F 88% 30.56 in 10.0 mi ESE 5.8 mph - N/A   Overcast
7:34 PM 32.9 °F 28.5 °F 29.7 °F 88% 30.56 in 10.0 mi ESE 4.6 mph - N/A   Overcast
7:54 PM 32.9 °F 28.5 °F 29.7 °F 88% 30.57 in 10.0 mi ESE 4.6 mph - N/A   Overcast
8:14 PM 33.1 °F - 29.7 °F 87% 30.57 in 10.0 mi Calm Calm - N/A   Overcast
8:34 PM 33.1 °F 28.7 °F 29.7 °F 87% 30.58 in 10.0 mi ENE 4.6 mph - N/A   Overcast
8:54 PM 32.9 °F 26.7 °F 29.3 °F 87% 30.59 in 10.0 mi ENE 6.9 mph - N/A   Overcast
9:14 PM 32.2 °F 27.7 °F 29.1 °F 88% 30.60 in 10.0 mi East 4.6 mph - N/A   Overcast
9:34 PM 32.0 °F 27.5 °F 29.1 °F 89% 30.62 in 10.0 mi ENE 4.6 mph - N/A   Overcast
9:54 PM 32.0 °F 27.5 °F 29.1 °F 89% 30.63 in 10.0 mi ENE 4.6 mph - N/A   Overcast
10:14 PM 32.0 °F 26.4 °F 29.3 °F 90% 30.64 in 10.0 mi ENE 5.8 mph - N/A   Overcast
10:34 PM 32.0 °F - 29.7 °F 91% 30.64 in 10.0 mi Calm Calm - N/A   Overcast
10:54 PM 32.0 °F - 29.8 °F 92% 30.64 in 7.0 mi Calm Calm - N/A   Overcast
11:14 PM 31.8 °F - 30.0 °F 93% 30.66 in 7.0 mi Calm Calm - N/A   Overcast
11:34 PM 31.8 °F - 30.2 °F 94% 30.66 in 5.0 mi Calm Calm - N/A   Overcast
11:54 PM 31.8 °F - 30.2 °F 94% 30.65 in 7.0 mi Calm Calm - N/A   Overcast